Location: Brahman Valley
(40.6513°N, 111.8855°W)
Time: 12:16:00
(UTC+00:00)

Vanguard 2 - Pass Details

Date: 22 May 2021
Orbit: 552 x 2937 km, 32.9° (Epoch: 14 June)

Event Time Altitude Azimuth Distance (km) Brightness Sun altitude
Rises 12:28:03 0° 258° (WSW) 3,690 10.4 3.2°
Reaches altitude 10° 12:30:17 10° 254° (WSW) 2,970 9.9 3.6°
Maximum altitude 12:37:34 54° 178° (S) 1,829 9.4 4.8°
Drops below altitude 10° 12:49:43 10° 107° (ESE) 4,829 12.6 7.0°
Sets 12:54:24 0° 104° (ESE) 6,166 13.2 7.8°
